www.pogodaiklimat.ru

Погода и климат >> Архив погоды >> Россия >> Ленинградская область >> Сосново


ПОГОДА в Сосново

  • Прогноз погоды в Сосново
  • Монитор погоды в Сосново
  • Климат города

АРХИВ ПОГОДЫ в Сосново

Время (UTC), дата Ветер
(напр.,м/с)
 
Видим.   Явления Облачность Т
(С)
Тd
(С)
f
(%)
Тe
(С)
Тes
(С)
Комфортность P
(гПа)
Po
(гПа)
Тmin
(С)
Tmax
(С)
R
(мм)
R24
(мм)
S
(см)
12 15.09 ЮЗ 2 50 км 9/4 600 м
[Cu med, cong Ac trans]
+16.5 +10.1 66 +17 +18 1013.1 1004.9
15 15.09 ЮЗ 2 50 км 9/3 600 м
[Sc Ac trans]
+16.0 +10.6 70 +16 +16 1012.4 1004.0
18 15.09 Ю 2 50 км 9/0
[Ac trans]
+14.3 +9.7 74 +14 +14 1011.6 1003.2 +18.1
21 15.09 Ю 3 50 км 10/0
[Ac As]
+13.4 +9.4 77 +12 +12 1009.2 1000.8
00 16.09 З 1 50 км {ливн. осадки} 10/5 600 м
[Cb cap Ac As]
+12.0 +9.6 85 +12 +12 1009.2 1000.8
03 16.09 С 1 10 км слабый ливневой дождь 10/10 840 м
[Cb cap]
+11.2 +10.6 96 +11 +11 1007.8 999.4 +10.7 0.6
06 16.09 СЗ 2 50 км {ливн. осадки} 9/5 600 м
[Cb cap Ac As]
+11.4 +10.6 95 +10 +10 1007.8 999.4 +10.7 4
09 16.09 СЗ 2 50 км 8/8 600 м
[Cb cap]
+13.5 +9.8 78 +13 +14 1010.1 1001.7
12 16.09 СЗ 2 50 км 6/6 600 м
[Cb cap]
+15.7 +6.5 54 +16 +17 1011.3 1002.9
15 16.09 З 1 50 км в посл. час ливневой дождь 9/9 800 м
[Cb cap]
+9.4 +7.1 86 +9 +9 1011.5 1003.0 4
18 16.09 ЮЗ 1 50 км {ливн. осадки} 1/1 600 м
[Sc]
+8.4 +5.0 79 +8 +8 1011.8 1003.3 +17.0 4
21 16.09 ЮЗ 1 50 км ясно +8.8 +6.9 88 +8 +8 1012.5 1004.0
00 17.09 ЮЗ 1 50 км ясно +8.5 +7.2 92 +8 +8 1011.7 1003.2
03 17.09 ЮЗ 1 50 км 3/0
[Ci fib]
+6.1 +5.4 95 +5 +5 1011.9 1003.2 +5.5
06 17.09 З 1 50 км 9/3 1000 м
[Sc Ac trans Ci sp]
+9.6 +7.5 87 +9 +10 1011.8 1003.3 +5.7
09 17.09 ЮЗ 3 50 км в посл. час ливневой дождь 10/5 600 м
[Cb cap Ac As]
+12.1 +10.4 89 +10 +11 1010.7 1002.3
12 17.09 Ю 3 21 км слабый ливневой дождь 10/8 660 м
[Cb cap Ac As]
+11.7 +10.3 91 +10 +10 1007.1 998.7
15 17.09 Ю 3 9000 м слабая морось {ливн. осадки, дождь} 10/10 540 м
[St]
+11.7 +10.9 95 +10 +10 1002.7 994.4 4
18 17.09 ЮЗ 2 50 км в посл. час ливневой дождь 10/5 600 м
[Cb cap Ac As]
+13.0 +12.3 96 +12 +12 1001.1 992.8 +14.0 7
21 17.09 З 4 50 км {ливн. осадки} 10/10 630 м
[Sc]
+12.8 +11.7 93 +11 +11 1002.0 993.7
00 18.09 СЗ 4
{11}
50 км {ливн. осадки} 10/10 900 м
[]
+11.2 +10.0 92 +9 +9 1004.6 996.1
03 18.09 50 км н/о +10.4 +7.9 84 +8 +8 1007.3 998.8 4
06 18.09 З 3 50 км 3/1 600 м
[Sc Ci sp]
+10.3 +7.4 82 +8 +9 1009.3 1000.8 +9.2 0.6
09 18.09 С 4 50 км 9/1 600 м
[Sc Ci sp]
+13.7 +5.2 56 +12 +15 1010.8 1002.4
12 18.09 З 4 50 км 9/1 600 м
[Sc Ac trans]
+15.3 +5.7 53 +14 +16 1011.1 1002.7
15 18.09 З 3 50 км 10/1 600 м
[Cb cap Ac As]
+14.1 +9.0 71 +13 +13 1010.8 1002.4
18 18.09 ЮЗ 1 50 км в посл. час ливневой дождь 10/5 600 м
[Cb cap Ac trans]
+12.9 +10.4 85 +13 +13 1010.8 1002.4 +16.4 0.0
21 18.09 ЮВ 1 10 км слабый ливневой дождь 10/10 750 м
[Cb cap]
+12.7 +11.6 93 +13 +13 1009.4 1001.0
00 19.09 ЮЗ 2 10 км слабый ливневой дождь 10/10 300 м
[Cb cap]
+12.9 +12.0 94 +12 +12 1007.8 1008.0
03 19.09 ЮЗ 2 50 км {ливн. осадки} 9/1 600 м
[Cb cap Ac trans]
+13.9 +13.5 97 +13 +13 1007.5 999.1 +12.0 2
06 19.09 ЮЗ 3 50 км {ливн. осадки} 10/10 360 м
[Frnb]
+14.4 +13.3 93 +13 +13 1008.0 999.6 +12.0 2
09 19.09 ЮЗ 3 50 км 4/3 600 м
[Cu hum Ac trans]
+17.3 +14.0 81 +17 +20 1006.4 998.2
12 19.09 ЮЗ 4 50 км 8/1 600 м
[Sc Ac trans]
+19.2 +13.6 70 +20 +22 1005.9 997.7
15 19.09 З 4
{10}
50 км 8/5 600 м
[Cu hum Ci fib]
+19.5 +13.4 68 +21 +21 комфорт 1004.2 996.0
18 19.09 З 5 50 км 1/0
[Ci fib]
+17.3 +11.6 69 +17 +17 1004.3 996.1 +21.5
21 19.09 З 3 50 км 4/0
[Ac trans]
+14.9 +12.9 88 +14 +14 1006.3 997.9
00 20.09 З 2 50 км ясно +13.8 +12.7 93 +13 +13 1005.8 997.4
03 20.09 З 2 50 км 3/0
[Ac trans]
+13.4 +12.5 94 +13 +13 1006.7 998.3 +13.0
06 20.09 З 3 50 км 6/6 600 м
[Sc]
+14.9 +13.5 91 +14 +14 1009.2 1000.8 +13.0
09 20.09 ЮЗ 5 50 км 9/3 600 м
[Sc Ac trans Ci sp]
+17.7 +14.0 79 +17 +18 1008.2 1000.9
12 20.09 З 5-10
{14}
50 км 9/5 1000 м
[Sc Ac trans]
+20.4 +15.4 73 +23 +24 комфорт 1008.9 1000.7
15 20.09 ЮЗ 3
{10}
50 км 6/4 1000 м
[Sc Ac trans]
+19.3 +15.2 77 +21 +21 комфорт 1008.6 1000.4
18 20.09 ЮЗ 5-11
{12}
50 км 6/6 1000 м
[Sc]
+18.0 +14.9 82 +18 +18 1007.9 999.7 +22.1
21 20.09 ЮЗ 3
{11}
50 км 6/0
[Ac trans]
+15.9 +12.3 79 +15 +15 1008.6 1000.2
00 21.09 ЮЗ 3 50 км 8/0
[Ac trans]
+15.8 +13.5 86 +15 +15 1008.5 1000.3
03 21.09 З 3 50 км {ливн. осадки} 9/4 300 м
[Cb cap Ac trans]
+14.9 +13.7 93 +14 +14 1010.3 1001.9 +14.1 0.5
06 21.09 ЮЗ 2 50 км {ливн. осадки} 8/0
[Ac trans Ci sp]
+15.1 +12.9 87 +15 +15 1011.1 1002.7 +14.1 0.5
09 21.09 ЮЗ 3 50 км 9/5 600 м
[Sc Ac trans]
+17.1 +13.2 78 +17 +18 1010.5 1002.3
12 21.09 ЮЗ 3 50 км 9/5 600 м
[Sc Ac trans]
+18.7 +14.8 78 +20 +21 1010.3 1002.1
15 21.09 Ю 2 50 км 4/0
[Ac lent Ci fib]
+19.1 +15.7 81 +21 +21 комфорт 1010.3 1002.1
18 21.09 Ю 2 50 км 9/0
[Ac trans]
+17.5 +13.3 76 +18 +18 1008.4 1000.2 +20.0
21 21.09 Ю 3 50 км 9/0
[Ac trans]
+16.1 +12.3 78 +16 +16 1006.3 998.1
00 22.09 Ю 3 50 км 9/0
[Ac trans]
+15.2 +11.9 81 +15 +15 1004.3 995.9
03 22.09 Ю 3 50 км 8/0
[Ci sp]
+16.6 +14.2 86 +16 +16 1000.8 992.7 +15.2
06 22.09 Ю 3 50 км 8/0
[Ac trans Ci fib]
+17.4 +14.8 85 +17 +18 999.0 990.9 +15.0
09 22.09 ЮЗ 4
{12}
50 км 10/10 420 м
[Cb cap]
+18.7 +16.2 85 +20 +20 997.4 989.3

 

Местоположение метеостанции Сосново (Ленинградская область, Россия): широта 60.55 долгота 30.32 высота над уровнем моря 70 м.

В архиве по умолчанию представлена погода в Сосново за последнюю неделю. Архивные данные за месяц целиком и за предыдущие месяцы, начиная с января 2011 года, Вы можете получить, выбрав интересующий диапазон дат из раскрывающегося списка и нажав кнопку "Ввод!".


*Определитесь, кто Вы:
робот инопланетянин человек

Внимание! Время в таблицах - всемирное. Для получения местного времени необходимо прибавить поправку, которая в Сосново равна 3 ч.

Смотрите также архив погоды в соседних городах и на ближайших метеорологических станциях:

Погода в Рощино (Ленинградская область, Россия) (51 км)
Погода в Лисьем Носу (город Санкт-Петербург, Россия) (62 км)
Погода в Санкт-Петербурге (город Санкт-Петербург, Россия) (65 км)
Погода в Воейково (город Санкт-Петербург, Россия) (70 км)
Погода в Кронштадте (город Санкт-Петербург, Россия) (71 км)
Погода в Ломоносове (город Санкт-Петербург, Россия) (76 км)
Погода в Шлиссельбурге (Ленинградская область, Россия) (79 км)
Погода в Озерках (Ленинградская область, Россия) (82 км)
Погода в Выборге (Ленинградская область, Россия) (89 км)
Погода в Лесогорском (Ленинградская область, Россия) (92 км)

Пояснения к столбцам:

Ветер - указаны скорость ветра в м/с - средняя за 10 мин, порывы в срок и между сроками (в фигурных скобках) и направление, откуда дует ветер: С - северный, СВ - северо-восточный, В - восточный, ЮВ - юго-восточный, Ю - южный, ЮЗ - юго-западный, З - западный, СЗ - северо-западный.
Видимость - горизонтальная дальность видимости в метрах или километрах. При видимости от 1 до 10 км при отсутствии осадков обычно наблюдается дымка, при ухудшении видимости до 1 км и менее - туман. В сухую погоду видимость может ухудшаться дымом, пылью или мглою.
Явления - указаны атмосферные явления, наблюдавшиеся в срок или в последний час перед сроком; фигурными скобками обозначены явления, наблюдавшиеся между сроками (за 1-3 часа до срока); квадратными скобками обозначены град или гололедные отложения с указанием их диаметра в мм.
Облачность - указаны через наклонную черту общая и нижняя облачность в баллах и высота нижней границы облаков в метрах; квадратными скобками обозначены формы облаков: Ci - перистые, Cs - перисто-слоистые, Cc - перисто-кучевые, Ac - высококучевые, As - высокослоистые, Sc - слоисто-кучевые, Ns - слоисто-дождевые, Cu - кучевые, Cb - кучево-дождевые. Подробнее классификацию облаков см. в Атласе облаков (PDF).
T - Температура воздуха - температура, измеренная на высоте 2 м над землей.
Td - Температура точки росы - температура, при понижении до которой содержащийся в воздухе водяной пар достигнет насыщения.
f - Относительная влажность воздуха - влажноcть воздуха, измеренная на высоте 2 м над землей.
Te - Эффективная температура - температура, которую ощущает одетый по сезону человек в тени. Характеристика душности погоды. При расчете учитывается влияние влажности воздуха и скорости ветра на теплоощущения человека.
Tes - Эффективная температура на солнце - температура, которую ощущает человек, с поправкой на солнечный нагрев. Характеристика знойности погоды. Зависит от высоты солнца над горизонтом, облачности и скорости ветра. Ночью, в пасмурную погоду, а также при ветре 12 м/с и более поправка равна нулю.
P - Атмосферное давление - приведенное к уровню моря атмосферное давление.
Po - Атмосферное давление - измеренное на уровне метеостанции атмосферное давление.
Tmin - Минимальная температура - минимум температуры воздуха на высоте 2 м над землей.
Tmax - Максимальная температура - максимум температуры воздуха на высоте 2 м над землей.
R - Количество осадков - Количество выпавших осадков за период времени, мм. При наведении курсора мыши на число - период времени, за который выпало указанное количество осадков.
R24 - Количество осадков - Количество выпавших осадков за 24 часа, мм.
S - Снежный покров - Высота снежного покрова, см. При наведении курсора мыши на число - состояние снежного покрова и степень покрытия местности в баллах.